Location: Buckhorn Peak
(37.6641°N, 120.1241°W)
Time: 01:21:23
(UTC+00:00)

Hubble Space Telescope - Visible Passes

Search period start: 15 December 2025 00:00
Search period end: 25 December 2025 00:00
Orbit: 480 x 483 km, 28.5° (Epoch: 14 December)

Date Brightness Start Highest point End Pass type
(mag) Time Alt. Az. Time Alt. Az. Time Alt. Az.
15 Dec 2.8 02:15:31 10° SW 02:18:14 19° S 02:20:16 13° SSE visible
16 Dec 2.9 01:46:15 10° SW 01:48:59 19° S 01:51:43 10° SE visible
17 Dec 3.0 01:16:59 10° SW 01:19:42 19° S 01:22:25 10° SE visible
